Location: Newark
(34.6283°N, 36.0776°E)
Time: 13:16:19
(UTC+00:00)

S-56A Canister/Altair - Pass Details

Date: 16 October 2019
Orbit: 634 x 2498 km, 38.9° (Epoch: 13 November)

Event Time Altitude Azimuth Distance (km) Brightness Sun altitude
Rises 00:13:45 0° 225° (SW) 3,356 - -42.8°
Reaches altitude 10° 00:15:57 10° 219° (SW) 2,585 - -42.4°
Maximum altitude 00:21:55 51° 145° (SE) 1,434 - -41.3°
Exits shadow 00:23:46 43° 106° (ESE) 1,693 9.3 -40.9°
Drops below altitude 10° 00:30:54 10° 73° (ENE) 3,841 11.8 -39.6°
Sets 00:34:51 0° 69° (ENE) 5,139 12.7 -38.8°
